Flag for Germany Weather past 2 weeks in Bad Vilbel, Hesse, Germany

Now
62 °F

Partly sunny.


Feels Like: 62 °F
Forecast: 44 / 69 °F
Wind: 3 mph from West

Location: Frankfurt / M-Flughafen

Current Time: Aug 20, 2014 at 12:50:57 PM

Latest Report: Aug 20, 2014 at 12:00 PM


Visibility: 31 mi

Pressure: 30.05 "Hg

Humidity: 55%

Dew point: 45 °F

Location of Bad VilbelLocation

Historic Weather in Bad Vilbel — Graph

°F

Bad Vilbel temperature yesterday

Maximum temperature yesterday: 71 °F (at 4:00 PM)
Minimum temperature yesterday: 51 °F (at 6:00 AM)
Average temperature yesterday: 59 °F

Past Weeks' High & Low Weather Summary

 TemperatureHumidityPressure
High82 °F (Aug 8, 3:00 PM)96% (Aug 19, 7:00 AM)30.11 "Hg (Aug 19, 7:00 AM)
Low48 °F (Aug 20, 7:00 AM)33% (Aug 12, 7:00 PM)29.64 "Hg (Aug 13, 5:00 PM)
Average64 °F72%29.92 "Hg
* Reported Aug 5 12:00 Noon — Aug 20 12:00 Noon, Bad Vilbel, Weather by CustomWeather, © 2014

Note: Actual official high and low records may vary slightly from our data, if they occured in-between our weather recording intervals... More about our weather records

Advertising

Bad Vilbel weather history for previous 24 hours

 ConditionsComfort  
Time TempWeatherWind HumidityBarometerVisibility
12:00 PM
Aug 20
62 °FPartly sunny.3 mph55%30.05 "Hg31 mi
11:00 AM59 °FPartly sunny.2 mph61%30.06 "Hg31 mi
10:00 AM56 °FScattered clouds.2 mph71%30.06 "Hg31 mi
9:00 AM53 °FScattered clouds.2 mph82%30.06 "Hg31 mi
8:00 AM49 °FScattered clouds.3 mph85%30.06 "Hg31 mi
7:00 AM48 °FScattered clouds.2 mph87%30.05 "Hg22 mi
6:00 AM49 °FClear.2 mph85%30.03 "Hg22 mi
4:00 AM49 °FPassing clouds.2 mph87%30.02 "Hg16 mi
3:00 AM49 °FClear.1 mph87%30.01 "Hg16 mi
2:00 AM52 °FCool.1 mph79%30.01 "Hg25 mi
1:00 AM53 °FPassing clouds.1 mph80%30.01 "Hg25 mi
12:00 AM56 °FOvercast.2 mph71%29.99 "Hg25 mi
11:00 PM
Aug 19
59 °FPassing clouds.5 mph73%29.97 "Hg37 mi
10:00 PM58 °FOvercast.2 mph77%29.96 "Hg37 mi
9:00 PM58 °FOvercast.1 mph75%29.94 "Hg25 mi
8:00 PM59 °FPartly sunny.3 mph74%29.93 "Hg25 mi
7:00 PM60 °FSprinkles. Partly sunny.5 mph69%29.91 "Hg25 mi
6:00 PM60 °FPartly sunny.6 mph72%29.91 "Hg25 mi
4:00 PM71 °FPartly sunny.12 mph37%29.85 "Hg25 mi
3:00 PM69 °FPartly sunny.9 mph42%29.85 "Hg31 mi
2:00 PM69 °FScattered clouds.9 mph45%29.85 "Hg31 mi
1:00 PM67 °FScattered clouds.9 mph55%29.88 "Hg31 mi
12:00 PM62 °FScattered clouds.5 mph74%29.89 "Hg22 mi
Weather by CustomWeather, © 2014

See weather overviewHow to use our weather pages